Two Harbors, MN

11:36 PM CST on November 16, 2019 (GMT -0600)
Helgeson

Weather History for KTWM - October, 2019

Change the Weather History Date:

Sunday, October 20, 2019

  Actual Average Record
Temperature  
Mean Temperature 47 °F -  
Max Temperature 59 °F 52 °F 75 °F (2017)
Min Temperature 35 °F 35 °F 20 °F (1952)
Degree Days  
Heating Degree Days 18    
Moisture  
Dew Point 31 °F    
Average Humidity 53    
Maximum Humidity 70    
Minimum Humidity 36    
Precipitation  
Precipitation 0.00 in - - ()
Sea Level Pressure  
Sea Level Pressure 29.82 in    
Wind  
Wind Speed 3 mph ()    
Max Wind Speed 8 mph    
Max Gust Speed -    
Visibility 9.7 miles    
Events      
Averages and records for this station are not official NWS values.
T = Trace of Precipitation, MM = Missing Value Source: Averaged Metar Reports

Daily Weather History Graph

Daily Weather History Graph

Search for Another Location

Airport or City:

Astronomy

Oct. 20, 2019 Rise Set
Actual Time 7:31 AM CDT 6:10 PM CDT
Civil Twilight 7:00 AM CDT 6:41 PM CDT
Nautical Twilight 6:25 AM CDT 7:17 PM CDT
Astronomical Twilight 5:50 AM CDT 7:52 PM CDT
Moon 11:04 PM CDT (10/20) 2:16 PM CDT (10/20)
Length of Visible Light 11h 40m
Length of Day
10h 38m
Waning Gibbous, 59% of the Moon is Illuminated
Oct 20
Waning Gibbous
Oct 21
Last Quarter
Oct 27
New
Nov 4
First Quarter
Nov 12
Full

Hourly Weather History & Observations

Time (CDT) Temp. Windchill Dew Point Humidity Pressure Visibility Wind Dir Wind Speed Gust Speed Precip Events Conditions
1:55 AM 41.0 °F - 26.6 °F 57% 29.69 in 10.0 mi Calm Calm - N/A   Clear
2:55 AM 35.6 °F - 26.6 °F 70% 29.71 in 10.0 mi Calm Calm - N/A   Clear
3:55 AM 42.8 °F 41.1 °F 28.4 °F 57% 29.71 in 10.0 mi NW 3.5 mph - N/A   Overcast
4:55 AM 37.4 °F - 26.6 °F 65% 29.74 in 10.0 mi Calm Calm - N/A   Clear
5:55 AM 41.0 °F 38.0 °F 28.4 °F 61% 29.75 in 10.0 mi NW 4.6 mph - N/A   Clear
6:55 AM 41.0 °F 37.1 °F 28.4 °F 61% 29.77 in 10.0 mi NW 5.8 mph - N/A   Clear
7:55 AM 41.0 °F 38.0 °F 28.4 °F 61% 29.80 in 10.0 mi NW 4.6 mph - N/A   Clear
8:55 AM 42.8 °F - 30.2 °F 61% 29.82 in 10.0 mi Calm Calm - N/A   Clear
9:55 AM 51.8 °F - 32.0 °F 47% 29.83 in 10.0 mi Calm Calm - N/A   Clear
10:55 AM 55.4 °F - 35.6 °F 47% 29.84 in 10.0 mi SSE 4.6 mph - N/A   Clear
11:55 AM 57.2 °F - 35.6 °F 44% 29.85 in 10.0 mi SSE 8.1 mph - N/A   Clear
12:55 PM 57.2 °F - 33.8 °F 41% 29.85 in 10.0 mi SSE 6.9 mph - N/A   Clear
1:55 PM 57.2 °F - 33.8 °F 41% 29.85 in 3.0 mi SSW 8.1 mph - N/A   Haze
2:55 PM 57.2 °F - 33.8 °F 41% 29.85 in 10.0 mi SSE 4.6 mph - N/A   Clear
3:55 PM 59.0 °F - 32.0 °F 36% 29.86 in 10.0 mi South 5.8 mph - N/A   Clear
4:55 PM 55.4 °F - 32.0 °F 41% 29.87 in 10.0 mi SE 4.6 mph - N/A   Clear
5:55 PM 51.8 °F - 32.0 °F 47% 29.87 in 10.0 mi Calm Calm - N/A   Clear
6:55 PM 48.2 °F - 30.2 °F 50% 29.88 in 10.0 mi Calm Calm - N/A   Clear
7:55 PM 48.2 °F - 32.0 °F 54% 29.88 in 10.0 mi NE 3.5 mph - N/A   Clear
8:55 PM 48.2 °F - 33.8 °F 58% 29.89 in 10.0 mi NE 3.5 mph - N/A   Clear
10:55 PM 46.4 °F 43.5 °F 33.8 °F 62% 29.89 in 10.0 mi NE 5.8 mph - N/A   Clear
11:55 PM 46.4 °F 45.2 °F 33.8 °F 62% 29.89 in 10.0 mi NNE 3.5 mph - N/A   Clear